Sigonella/Catani, Italy

2:29 PM CET on February 22, 2017 (GMT +0100)
Sigonella Mil

Weather History for LICZ - April, 2013

Change the Weather History Date:

Thursday, April 18, 2013

  Actual Average Record
Temperature  
Mean Temperature 58 °F -  
Max Temperature 74 °F 74 °F 79 °F (2016)
Min Temperature 42 °F 51 °F 40 °F (2015)
Degree Days  
Heating Degree Days 7    
Growing Degree Days 8 (Base 50)    
Moisture  
Dew Point 41 °F    
Average Humidity 54    
Maximum Humidity 100    
Minimum Humidity 10    
Precipitation  
Precipitation 0.00 in 0.04 in - ()
Sea Level Pressure  
Sea Level Pressure 30.12 in    
Wind  
Wind Speed 5 mph ()    
Max Wind Speed 12 mph    
Max Gust Speed -    
Visibility 6.6 miles    
Events      
Averages and records for this station are not official NWS values.
T = Trace of Precipitation, MM = Missing Value Source: Averaged Metar Reports

Daily Weather History Graph

Daily Weather History Graph

Search for Another Location

Airport or City:

Trip Planner

Search our weather history database for the weather conditions in past years. The results will help you decide how hot, cold, wet, or windy it might be!

Date:

Astronomy

Apr. 18, 2013 Rise Set
Actual Time 6:21 AM CEST 7:38 PM CEST
Civil Twilight 5:54 AM CEST 8:05 PM CEST
Nautical Twilight 5:22 AM CEST 8:37 PM CEST
Astronomical Twilight 4:48 AM CEST 9:11 PM CEST
Moon 12:17 PM CEST (4/18) 1:40 AM CEST (4/18)
Length of Visible Light 14h 11m
Length of Day
13h 16m
Waxing Crescent, 49% of the Moon is Illuminated
Apr 18
Waxing Crescent
Apr 18
First Quarter
Apr 25
Full
May 2
Last Quarter
May 10
New

Hourly Weather History & Observations

Time (CEST) Temp. Windchill Dew Point Humidity Pressure Visibility Wind Dir Wind Speed Gust Speed Precip Events Conditions
12:55 AM 50.0 °F - 42.8 °F 76% 30.18 in 6.2 mi NW 5.8 mph - N/A   Partly Cloudy
1:55 AM 50.0 °F - 46.4 °F 87% 30.15 in 6.2 mi West 3.5 mph - N/A   Partly Cloudy
2:00 AM 49 °F - 47 °F 88% 30.18 in 6 mi West 3.5 mph - -   Scattered Clouds
2:55 AM 51.8 °F - 44.6 °F 76% 30.15 in 6.2 mi WNW 8.1 mph - N/A   Partly Cloudy
3:55 AM 50.0 °F - 44.6 °F 82% 30.15 in 6.2 mi West 2.3 mph - N/A   Partly Cloudy
5:00 AM 51 °F - 46 °F 77% 30.17 in 6 mi WNW 3.5 mph - -   Scattered Clouds
5:55 AM 44.6 °F 43.1 °F 44.6 °F 100% 30.15 in - WSW 3.5 mph - N/A   Clear
6:55 AM 46.4 °F - 46.4 °F 100% 30.15 in - NW 2.3 mph - N/A   Clear
7:55 AM 46.4 °F - 46.4 °F 100% 30.15 in - NNW 2.3 mph - N/A   Clear
8:00 AM 46 °F - 46 °F 100% 30.17 in 6 mi NNW 2.3 mph - -  
8:55 AM 57.2 °F - 46.4 °F 67% 30.15 in - NW 4.6 mph - N/A   Clear
10:55 AM 68.0 °F - 41.0 °F 37% 30.15 in - ESE 5.8 mph - N/A   Clear
11:00 AM 69 °F - 41 °F 25% 30.15 in 6 mi ESE 5.8 mph - -   Clear
11:55 AM 71.6 °F - 37.4 °F 29% 30.12 in 6.2 mi ENE 8.1 mph - N/A   Partly Cloudy
12:55 PM 71.6 °F - 37.4 °F 29% 30.12 in 6.2 mi East 10.4 mph - N/A   Partly Cloudy
1:55 PM 73.4 °F - 33.8 °F 23% 30.12 in 6.2 mi East 9.2 mph - N/A   Partly Cloudy
2:00 PM 73 °F - 34 °F 14% 30.13 in 6 mi East 9.2 mph - -   Scattered Clouds
2:35 PM 69.8 °F - 32.0 °F 25% 30.09 in 6.2 mi East 9.2 mph - N/A   Light Volcanic Ash
2:55 PM 69.8 °F - 33.8 °F 27% 30.09 in 6.2 mi East 9.2 mph - N/A   Light Volcanic Ash
3:55 PM 71.6 °F - 32.0 °F 23% 30.06 in 6.2 mi East 6.9 mph - N/A   Light Volcanic Ash
4:23 PM 73.4 °F - 32.0 °F 22% 30.06 in 6.2 mi East 8.1 mph - N/A   Partly Cloudy
4:55 PM 73.4 °F - 28.4 °F 19% 30.06 in 6.2 mi ESE 6.9 mph - N/A   Partly Cloudy
5:00 PM 73 °F - 28 °F 10% 30.06 in 11 mi ESE 6.9 mph - -   Scattered Clouds
5:55 PM 69.8 °F - 26.6 °F 20% 30.04 in 6.2 mi ESE 11.5 mph - N/A   Partly Cloudy
6:55 PM 68.0 °F - 28.4 °F 23% 30.06 in - ENE 6.9 mph - N/A   Clear
7:55 PM 62.6 °F - 33.8 °F 34% 30.06 in - ENE 8.1 mph - N/A   Clear
8:00 PM 62 °F - 33 °F 22% 30.07 in 12 mi ENE 8.1 mph - -  
8:55 PM 59.0 °F - 50.0 °F 72% 30.09 in - ENE 6.9 mph - N/A   Clear
9:55 PM 62.6 °F - 55.4 °F 77% 30.12 in - WSW 2.3 mph - N/A   Clear
10:55 PM 62.6 °F - 57.2 °F 82% 30.12 in - NNW 4.6 mph - N/A   Clear
11:00 PM 63 °F - 57 °F 76% 30.13 in 6 mi NNW 4.6 mph - -  
11:55 PM 53.6 °F - 48.2 °F 82% 30.12 in - NW 5.8 mph - N/A   Clear